Regional Weather Roundup
Issued by NWS

Home | Current Version | Previous Version | Graphics & Text | Print | Product List | Glossary On
Versions: 1 2 3 4 5 6 7 8 9 10 11 12 13 14 15 16 17 18 19 20 21 22 23 24 25 26 27
000
ASUS45 KSLC 300110
RWRUT

UTAH REGIONAL WEATHER ROUNDUP
NATIONAL WEATHER SERVICE SALT LAKE CITY UT
700 PM MDT FRI JUL 29 2016

UTZ001>011-023>025-300200-

NORTHERN UTAH

CITY           SKY/WX    TMP DP  RH WIND       PRES   REMARKS
BRIGHAM CITY     N/A     97  24   7 S9        29.93F HX  90
HILL AFB       SUNNY     94  35  12 NE2       29.99F
LOGAN          SUNNY     94  41  16 N10       29.95F HX  90
OGDEN          SUNNY     95  38  13 W6        29.94F HX  90
PROVO AIRPORT  MOSUNNY   97  43  15 NW9       29.96S HX  92
SALT LAKE CITY MOSUNNY  100  35  10 N6        29.92F HX  94
VERNAL         SUNNY     94  34  12 SE3       29.99F
WENDOVER       MOSUNNY   95  36  12 S8        29.94S HX  90
HEBER CITY     SUNNY     91  34  13 N8        30.04F
WEST JORDAN    SUNNY     95  39  14 NW10      29.98  HX  91

$$

UTZ012>022-026-027-300200-

SOUTHERN/CENTRAL UTAH

CITY           SKY/WX    TMP DP  RH WIND       PRES   REMARKS
BLANDING       MOSUNNY   95  30  10 W9        30.10S
BRYCE CANYON   PTSUNNY   80  35  19 NW13      30.28F
CEDAR CITY     PTSUNNY   90  38  16 N5        30.09F
DELTA          PTSUNNY   95  34  11 SW12      29.98S HX  90
MILFORD        CLOUDY    92  37  14 SW9       30.02F
MOAB/CYNLANDS  PTSUNNY  100  33   9 NE24G35   29.90F HX  94
PRICE          PTSUNNY   91  31  11 NW13G21   30.05F
ST GEORGE      CLEAR    108  45  12 N12       29.83S HX 103

$$

REGIONAL REPORTS     COLORADO/ARIZONA

CITY           SKY/WX    TMP DP  RH WIND       PRES   REMARKS
CRAIG, CO      CLOUDY    82  37  20 S6        30.08F
GRAND JUNCTION CLOUDY    93  33  12 N23G29    29.97S
RIFLE          SUNNY     95  33  11 N7        30.00F HX  90
MONTROSE       CLOUDY    89  39  17 W6        30.04F
CORTEZ         SUNNY     94  31  10 VRB7      30.04F
PAGE, AZ       CLOUDY    96  37  12 MISG      29.93F HX  91
GRAND CANYON   CLOUDY    76  49  38 S12       30.23R
KINGMAN        PTSUNNY   97  52  21 E10       29.89F HX  94
FLAGSTAFF      CLOUDY    69  47  45 VRB3G18   30.23S

$$

REGIONAL REPORTS    NEVADA/IDAHO/WYOMING

CITY           SKY/WX    TMP DP  RH WIND       PRES   REMARKS
LAS VEGAS, NV  PTSUNNY  111  39   8 S6        29.69F HX 105
ELY            PTSUNNY   79  49  34 S10       30.15F
ELKO           MOSUNNY   96  30   9 NE7       29.99F HX  90
POCATELLO, ID  SUNNY     94  38  14 SW16      29.94F
BURLEY         SUNNY     89  43  20 W12       29.92F
EVANSTON, WY   SUNNY     84  27  12 NW20G28   30.19F
ROCK SPRINGS   SUNNY     87  21   9 W17       30.11F
KEMMERER         N/A    N/A N/A N/A W20G30    30.19F

$$




USA.gov is the U.S. government's official web portal to all federal, state and local government web resources and services.